User: anonymous   Login
Location: Deep South Regional Star Gaze
(30.9929°N, 90.9586°W)
Time: 00:28:54
(UTC-05:00)
Language:

H-2A R/B - Orbit

View from above orbital plane
View from above orbital plane
View from above satellite
View from above satellite

Ground track
Ground track

The orbit data is extracted from the following two-line orbital elements,

1 26899U 01038B   18174.51050848 +.00000515 +00000-0 +14336-3 0  9999
2 26899 027.9663 274.1691 7110570 074.3876 348.5013 02.48954281145710
Epoch (UTC): 23 June 2018 12:15:07
Eccentricity: 0.7110570
inclination: 27.9663°
perigee height: 266 km
apogee height: 32969 km
right ascension of ascending node: 274.1691°
argument of perigee: 74.3876°
revolutions per day: 2.48954281
mean anomaly at epoch: 348.5013°
orbit number at epoch: 14571

The dashed part of the orbit path shows where the satellite is in the earth's shadow,  

DLR